SCP
0 0 0 0 0 0 0 0 0 0 0 0 0 0 0 0 0 0 0 0 0 0 0 0 0 0 0 0 0 0 1 1 1 0 0 0 0 0 0 0 0 0 0
0 0 0 0 0 0 0 0 0 0 0 0 0 0 0 0 0 0 0 0 0 0 0 0 0 0 0 0 0 0 0 1 1 0 0 0 0 0 0 0 0 0 0
0 0 0 0 0 0 0 0 0 0 0 0 0 0 0 0 0 0 0 0 0 0 0 0 0 0 0 0 0 0 0 0 0 0 0 0 0 0 0 0 0 0 0
0 0 0 0 0 0 0 0 0 0 0 0 0 0 0 0 0 0 0 0 0 0 0 0 0 0 0 0 0 0 0 0 0 0 0 0 0 0 0 0 0 0 0
0 0 0 0 0 0 0 0 0 0 0 0 0 0 0 0 0 0 0 0 0 0 0 0 0 0 0 0 0 0 0 0 0 0 0 0 0 0 0 0 0 0 0
0 0 0 0 0 0 0 0 0 0 0 0 0 0 0 0 0 0 0 0 0 0 0 0 0 0 0 0 0 0 0 0 0 0 0 0 0 0 0 0 0 0 0
0 0 0 0 0 0 0 0 0 0 0 0 0 0 0 0 0 0 0 0 0 0 0 0 0 0 0 0 0 0 0 0 0 0 0 0 0 0 0 0 0 0 0
0 0 0 0 0 0 0 0 0 0 0 0 0 0 0 0 0 0 0 0 0 0 0 0 0 0 0 0 0 0 0 0 0 0 0 0 0 0 0 0 0 0 0
0 0 0 0 0 0 0 0 0 0 0 0 0 0 0 0 0 0 0 0 0 0 0 0 0 0 0 0 0 0 0 0 0 0 0 0 0 0 0 0 0 0 0
0 0 0 0 0 0 0 0 0 0 0 0 0 0 0 0 0 0 0 0 0 0 0 0 0 0 0 0 0 0 0 0 0 0 0 0 0 0 0 0 0 0 0
0 0 0 0 0 0 0 0 0 0 0 0 0 0 0 0 0 0 0 0 0 0 0 0 0 0 0 0 0 0 0 0 0 0 0 0 0 0 0 0 0 0 0
0 0 0 0 0 0 0 0 0 0 0 0 0 0 0 0 0 0 0 0 0 0 0 0 0 0 0 0 0 0 0 0 0 0 0 0 0 0 0 0 0 0 0
0 0 0 0 0 0 0 0 0 0 0 0 0 0 0 0 0 0 0 0 0 0 0 0 0 0 0 0 0 0 0 0 0 0 0 0 0 0 0 0 0 0 0
0 0 0 0 0 0 0 0 0 0 0 0 0 0 0 0 0 0 0 0 0 0 0 0 0 0 0 0 0 0 0 0 0 0 0 0 0 0 0 0 0 0 0
0 0 0 0 0 0 0 0 0 0 0 0 0 0 0 0 0 0 0 0 0 0 0 0 0 0 0 0 0 0 0 0 0 0 0 0 0 0 0 0 0 0 0
0 0 0 0 0 0 0 0 0 0 0 0 0 0 0 0 0 0 0 0 0 0 0 0 0 0 0 0 0 0 0 0 0 0 0 0 0 0 0 0 0 0 0
0 0 0 0 0 0 0 0 0 0 0 0 0 0 0 0 0 0 0 0 0 0 0 0 0 0 0 0 0 0 0 0 0 0 0 0 0 0 0 0 0 0 0
0 0 0 0 0 0 0 0 0 0 0 0 0 0 0 0 0 0 0 0 0 0 0 0 0 0 0 0 0 0 0 0 0 0 0 0 0 0 0 0 0 0 0
0 0 0 0 0 0 0 0 0 0 0 0 0 0 0 0 0 0 0 0 0 0 0 0 0 0 0 0 0 0 0 0 0 0 0 0 0 0 0 0 0 0 0
0 0 0 0 0 0 0 0 0 0 0 0 0 0 0 0 0 0 0 0 0 0 0 0 0 0 0 0 0 0 0 0 0 0 0 0 0 0 0 0 0 0 0
0 0 0 0 0 0 0 0 0 0 0 0 0 0 0 0 0 0 0 0 0 0 0 0 0 0 0 0 0 0 0 0 0 0 0 0 0 0 0 0 0 0 0
0 0 0 0 0 0 0 0 0 0 0 0 0 0 0 0 0 0 0 0 0 0 0 0 0 0 0 0 0 0 0 0 0 0 0 0 0 0 0 0 0 0 0
0 0 0 0 0 0 0 0 0 0 0 0 0 0 0 0 0 0 0 0 0 0 0 0 0 0 0 0 0 0 0 0 0 0 0 0 0 0 0 0 0 0 0
0 0 0 0 0 0 0 0 0 0 0 0 0 0 0 0 0 0 0 0 0 0 0 0 0 0 0 0 0 0 0 0 0 0 0 0 0 0 0 0 0 0 0
0 0 0 0 0 0 0 0 0 0 0 0 0 0 0 0 0 0 0 0 0 0 0 0 0 0 0 0 0 0 0 0 0 0 0 0 0 0 0 0 0 0 0
0 0 0 0 0 0 0 0 0 0 0 0 0 0 0 0 0 0 0 0 0 0 0 0 0 0 0 0 0 0 0 0 0 0 0 0 0 0 0 0 0 0 0
Wind_Speed
9 10 10 11 11 12 12 13 12 10 10 12 12 12 12 13 13 13 14 13 15 14 13 14 15 13 11 10 9 10 10 10 13 6 1 3 7 8 7 7 6 7 7
6 7 8 8 7 8 10 11 10 10 10 11 11 12 12 13 13 14 15 14 15 15 14 14 15 11 13 11 9 10 10 9 9 9 3 3 5 6 6 6 6 6 5
5 5 6 6 7 8 8 8 7 8 9 9 10 12 12 12 12 13 14 13 14 14 13 13 13 11 12 10 10 9 8 6 5 5 3 2 2 4 5 4 5 4 5
5 5 5 6 6 6 5 5 5 6 7 8 9 10 10 10 10 11 11 11 11 11 10 10 10 10 10 10 8 9 6 5 3 3 3 3 3 4 5 5 5 4 4
5 5 5 4 3 3 3 3 3 4 4 5 5 5 5 5 6 7 8 8 9 8 7 7 7 8 9 8 5 5 5 4 4 4 3 3 4 5 6 5 5 4 3
5 5 4 3 3 3 3 2 2 2 2 2 3 3 3 3 3 5 5 5 5 5 5 4 4 4 5 6 7 7 7 6 6 5 4 5 6 6 5 6 5 5 4
5 4 4 4 4 3 3 3 3 2 2 2 2 2 2 1 1 2 4 3 3 3 3 2 2 1 2 1 2 3 3 5 6 5 5 6 6 8 8 7 7 5 3
5 5 4 5 4 4 3 3 3 2 2 2 2 2 1 0 1 1 2 2 2 1 1 2 2 1 2 3 2 2 1 1 2 2 3 4 4 6 7 6 6 5 3
6 6 5 6 6 5 5 4 3 3 2 2 2 2 2 1 2 2 2 2 2 2 2 2 2 2 2 4 4 3 2 1 2 3 4 5 8 11 10 7 6 5 2
7 6 5 5 6 6 5 4 3 3 3 3 3 2 2 1 3 3 3 2 3 2 2 2 2 2 3 4 4 4 3 2 3 4 4 5 5 8 10 6 6 5 3
5 5 5 5 5 5 4 3 4 4 4 4 4 3 3 2 3 4 4 2 3 2 2 1 1 2 4 4 4 3 4 5 4 4 4 3 3 3 3 2 2 3 3
6 6 5 5 4 4 5 4 4 5 5 4 3 3 2 2 3 4 4 4 4 3 2 1 2 4 5 5 4 5 7 7 4 4 3 3 2 2 2 2 2 2 1
7 6 5 5 4 5 6 6 4 4 4 3 3 3 2 2 3 5 5 5 5 3 2 4 5 6 6 5 6 7 5 4 3 3 2 2 2 2 2 2 2 2 3
8 7 6 6 6 5 4 4 4 4 4 4 3 3 2 2 1 2 2 3 4 4 3 4 6 7 6 5 4 4 3 2 2 2 2 2 2 2 2 2 2 1 1
8 7 6 6 6 6 4 3 4 2 3 4 3 3 3 2 1 3 3 2 3 3 4 3 3 3 2 2 2 2 2 2 2 1 2 2 2 2 2 2 2 2 2
8 7 6 5 5 5 6 5 7 7 8 8 6 5 2 3 4 5 5 6 7 8 5 3 2 2 2 2 1 1 1 1 1 1 1 2 2 2 2 2 2 2 3
7 6 5 5 6 6 6 6 6 6 9 9 8 7 5 5 6 6 6 7 7 7 3 3 2 2 1 1 1 1 1 1 1 2 2 2 2 2 2 2 2 2 3
6 6 5 5 5 5 5 4 4 5 4 3 5 7 7 7 7 6 7 6 4 3 2 2 2 1 1 1 1 1 1 1 1 1 2 2 2 2 2 3 3 4 3
5 4 4 4 4 4 4 5 4 5 4 3 2 4 5 7 8 8 6 3 3 2 2 2 1 1 1 1 1 1 1 1 2 2 2 2 2 2 3 3 3 4 4
4 6 6 5 5 5 4 5 5 4 4 3 3 2 1 3 3 3 3 3 3 2 2 1 1 1 1 1 1 1 1 1 1 1 2 2 2 2 3 3 3 3 4
4 5 7 6 5 4 4 4 4 4 4 3 2 2 4 3 3 3 2 2 2 1 1 1 1 1 1 1 0 0 1 1 1 1 2 2 2 2 2 3 3 3 3
4 5 5 5 5 4 4 4 4 4 4 4 2 2 5 4 3 2 2 2 1 1 1 1 1 1 0 0 1 1 1 1 1 1 2 2 2 2 2 2 2 2 3
5 5 5 5 4 5 5 4 4 4 4 3 3 2 2 2 2 2 2 1 1 1 1 1 1 0 0 0 0 1 2 2 2 2 2 2 2 2 2 2 3 3 3
5 5 6 5 4 4 4 4 3 3 3 3 2 2 2 2 1 1 1 1 1 1 1 1 0 0 1 1 1 1 2 2 2 2 3 3 3 2 2 3 3 4 3
4 5 5 4 4 4 4 3 3 3 2 2 2 2 1 1 1 1 0 0 0 0 1 1 0 1 2 2 2 2 3 4 3 3 3 3 3 3 3 3 3 3 3
4 4 4 3 3 3 3 3 2 2 2 1 1 1 1 1 1 1 1 1 1 1 1 1 1 2 2 2 4 4 5 5 5 5 3 3 4 4 3 3 4 3 3
Wind_Direction
208 209 212 217 218 219 222 224 223 220 214 215 216 217 220 222 222 225 229 228 232 236 235 236 240 237 240 238 235 235 237 237 254 258 177 164 179 188 185 182 184 194 200
208 207 212 216 213 216 222 225 221 221 218 218 218 220 223 224 224 225 230 231 233 237 237 238 242 240 241 242 239 239 239 233 241 250 213 167 181 180 169 172 182 189 189
196 199 207 210 211 216 221 222 219 221 222 220 219 223 225 226 227 228 231 233 234 237 238 239 242 239 243 242 239 240 239 231 227 230 213 147 134 150 151 162 174 185 193
187 191 201 208 210 215 217 217 216 217 221 223 223 226 227 228 229 230 231 235 237 239 239 239 241 238 242 243 241 241 233 218 202 196 181 151 142 146 155 170 183 190 199
179 190 204 201 193 191 197 203 205 210 219 222 222 224 225 225 229 229 231 234 237 240 239 240 241 240 242 240 236 231 211 204 187 188 178 160 167 168 186 176 185 169 189
179 191 188 173 170 176 184 182 186 202 205 202 211 211 215 223 225 218 221 225 227 233 241 244 248 246 251 244 234 220 202 198 198 190 189 192 190 182 166 168 163 160 199
179 179 175 172 171 175 166 164 178 183 173 182 196 185 193 217 215 212 219 221 221 225 226 231 234 224 217 217 211 202 207 207 196 186 190 195 183 179 167 171 179 175 181
178 180 176 170 171 163 156 168 171 157 160 168 164 169 163 52 57 139 186 189 189 191 179 181 177 174 170 159 148 136 132 167 179 185 190 184 172 166 170 167 158 127 83
183 186 181 173 170 165 168 172 165 150 147 145 130 130 128 69 56 89 123 124 113 91 72 81 112 130 153 150 141 138 126 93 90 125 133 143 152 156 150 132 137 139 158
191 186 174 169 169 170 169 160 149 143 140 127 113 102 107 86 64 86 111 122 117 101 79 70 84 112 136 145 144 147 154 147 120 105 100 112 129 153 159 157 158 157 151
170 160 157 159 162 161 149 138 136 132 126 123 115 98 85 74 66 75 94 112 126 121 111 93 75 104 121 130 135 143 151 137 128 122 114 107 104 119 136 133 144 159 164
150 152 152 150 146 141 136 130 130 133 130 127 118 99 70 61 67 71 79 93 107 117 118 116 114 115 113 118 117 129 131 124 121 125 130 139 145 151 141 127 116 90 82
148 149 146 138 133 135 139 141 138 137 138 138 133 123 98 68 63 69 80 94 102 103 108 112 112 112 110 108 111 119 121 124 132 143 158 162 150 142 126 106 83 74 60
149 148 146 144 137 130 129 136 141 149 148 143 142 137 125 104 88 84 88 94 95 96 97 100 101 101 97 96 105 107 107 124 144 158 149 132 125 133 145 147 153 151 137
149 148 147 144 141 134 124 119 128 121 138 143 147 145 145 145 142 134 130 124 126 123 114 96 91 98 99 96 91 97 105 114 118 122 137 145 158 165 170 161 159 165 192
152 153 151 146 142 138 132 111 87 96 97 101 110 116 108 114 120 123 123 124 125 129 113 113 117 117 126 126 129 123 126 142 148 148 155 167 183 193 192 183 184 196 219
152 150 147 145 145 144 143 140 130 96 84 82 87 95 98 106 110 115 120 118 119 123 108 116 121 127 129 135 149 161 174 177 166 171 183 189 193 200 202 207 208 220 233
132 134 135 137 137 138 137 135 135 137 128 82 59 74 87 92 93 101 114 113 106 97 96 117 126 136 143 155 164 172 184 183 188 198 202 200 196 200 208 215 216 223 234
125 125 121 119 119 121 120 118 116 117 118 115 86 54 55 81 79 76 84 87 112 110 93 92 99 114 125 139 156 173 185 199 207 205 210 213 208 207 218 222 225 227 228
114 116 119 121 121 121 121 122 122 122 122 120 110 88 50 71 79 68 60 74 92 99 101 106 98 99 113 128 143 160 185 205 218 222 226 224 220 218 226 227 227 229 230
118 116 113 113 116 119 120 121 124 125 125 119 101 94 106 100 104 97 89 78 84 99 106 105 102 95 83 81 99 180 210 223 224 229 232 229 222 225 230 231 234 234 235
116 117 115 116 115 112 112 113 115 116 120 117 101 79 88 89 96 95 87 74 61 58 73 109 116 111 134 158 179 197 212 227 237 240 244 240 232 231 231 234 236 235 234
110 111 107 103 105 107 103 104 110 115 117 116 113 99 83 86 87 86 80 62 50 39 32 56 88 54 13 343 235 209 217 231 233 227 229 236 240 236 228 231 231 235 236
109 112 113 111 108 109 112 111 111 113 116 116 113 108 103 101 99 90 76 54 44 30 23 32 56 283 299 303 290 272 255 254 243 230 221 221 226 230 228 231 230 231 233
101 107 110 113 115 116 115 114 115 116 119 123 126 124 119 118 123 129 132 113 24 327 321 312 287 275 276 275 273 271 274 275 260 234 217 213 219 221 221 226 226 224 224
94 99 103 106 110 117 126 131 135 136 138 141 146 156 167 176 187 199 209 218 243 261 270 268 261 267 274 277 274 274 270 268 256 236 214 209 213 218 214 220 223 222 219